Tracking 29892 objects as of 21-Nov-2024
HD Live streaming from Space Station
objects crossing your sky now

STARLINK-31750

Track STARLINK-31750 now!
10-day predictions
STARLINK-31750 is classified as:


NORAD ID: 59552
Int'l Code: 2024-074U
Perigee: 450.1 km
Apogee: 452.3 km
Inclination: 43.0 °
Period: 93.5 minutes
Semi major axis: 6822 km
RCS: Unknown
Launch date: April 18, 2024
Source: United States (US)
Launch site: AIR FORCE EASTERN TEST RANGE (AFETR)
Your satellite tracking list
Your tracking list is empty




NASA's NSSDC Master Catalog

Two Line Element Set (TLE):
1 59552U 24074U   24325.93805570  .00000218  00000-0  12475-4 0  9990
2 59552  43.0020 151.7026 0001604 268.5919  91.4753 15.40705292 34641
Source of the keplerian elements: AFSPC